Location: Columbus
(29.5618°N, 96.6770°W)
Time: 06:45:02
(UTC-05:00)

Daily predictions for brighter satellites

Satellite Brightness Start Highest point End
(mag) Time Altitude Azimuth Time Altitude Azimuth Time Altitude Azimuth
GPS 2-04 Rocket1 3.5 20:53:26 10° WNW 20:57:45 53° NNE 21:01:59 10° E
XTE 4.5 20:56:05 10° WSW 20:58:38 23° S 21:01:11 10° SE
Delta 142 4.0 20:54:49 10° W 20:59:08 59° S 21:04:31 10° ESE
Tiangong 1 2.6 21:01:11 10° S 21:03:23 18° SE 21:05:35 10° E
ERS-1 Rocket 4.0 20:59:55 10° SE 21:04:10 28° ENE 21:08:26 10° NNE
FengYun 1-2 T 4.5 20:58:43 10° S 21:04:11 74° WSW 21:09:43 10° NNW
Meteor 2-1 Rocket 4.2 21:00:10 10° N 21:05:46 73° E 21:11:16 10° SSE
deb Kosmos-1763 4.4 21:03:17 10° SSW 21:07:08 78° WNW 21:11:02 10° NNE
H-2A R/B 2.8 21:04:46 10° SSE 21:08:35 63° ENE 21:12:22 10° N
CZ-2D R/B 3.3 21:06:09 10° SSE 21:10:03 87° ENE 21:13:56 10° N
Cosmos 1777 Rocket 4.4 21:07:30 10° S 21:12:27 43° ESE 21:17:25 10° NNE
Cosmos 1378 3.4 21:08:49 10° SSW 21:12:33 71° W 21:16:17 10° N
H-2A R/B 1.5 21:12:39 10° SW 21:17:16 32° S 21:18:40 16° ESE
Cosmos 2360 4.2 21:12:06 10° NNW 21:17:50 78° ENE 21:23:32 10° SSE
Cosmos 1408 Rocket 4.4 21:13:42 10° SSW 21:18:01 53° W 21:22:18 10° N
Meteor 1-21 Rocket 4.4 21:13:24 10° SSE 21:18:44 50° E 21:24:03 10° NNE
AVUM R/B 3.3 21:16:57 10° SSE 21:18:50 26° ESE 21:20:50 10° NE
NOSS 3-1 (C) 4.4 21:17:58 10° SSE 21:22:09 21° ESE 21:26:30 10° ENE
Cosmos 1553 Rocket 4.3 21:20:44 10° N 21:26:56 52° E 21:32:53 11° SSE
Cosmos 1417 Rocket 4.5 21:21:01 10° N 21:27:14 73° E 21:33:31 10° S
YAOGAN 11 4.0 21:28:55 10° SSE 21:33:11 80° ENE 21:37:31 10° N
CZ-2C R/B 1.7 21:34:50 18° NE 21:34:50 18° NE 21:35:38 10° NNE
Cosmos 1151 Rocket 4.4 21:33:54 10° NNE 21:37:16 22° ENE 21:38:40 19° ESE
ASTRO E2 4.1 21:34:00 10° W 21:37:24 26° SSW 21:39:30 17° SSE
Delta 128 3.8 21:34:53 10° W 21:39:30 55° SSW 21:42:10 22° ESE
SWIFT 4.2 21:42:12 10° SW 21:44:45 16° SSW 21:45:47 14° S
Cosmos 2058 4.5 21:46:02 18° E 21:46:02 18° E 21:48:48 10° NE
Cosmos 1538 Rocket 4.1 21:42:12 10° N 21:47:32 68° ENE 21:51:06 21° SSE
H-2A R/B 2.2 21:48:08 22° SSE 21:50:58 65° ENE 21:55:27 10° N
Cosmos 2219 3.6 21:46:13 10° S 21:51:34 42° ESE 21:56:57 10° NE
Cosmos 332 Rocket 4.4 21:47:29 10° NNW 21:52:12 53° WSW 21:56:30 12° S
Meteor 2-20 4.4 21:47:12 10° S 21:53:20 80° E 21:59:29 10° N
Cosmos 1441 Rocket 3.9 21:50:55 10° SSW 21:54:38 53° W 21:58:19 10° N
CZ-4B R/B 4.1 21:51:53 10° NNE 21:56:44 37° E 21:58:43 27° SE
CZ-4 SHROUD 4.3 21:57:27 28° ENE 21:57:27 28° ENE 22:00:12 10° NNE
Cosmos 1328 Rocket 3.8 21:56:19 10° N 22:00:45 71° W 22:03:54 19° S
GPS 2-12 Rocket1 4.2 21:58:35 10° SW 22:02:13 24° S 22:02:22 24° S
OAO 2 Rocket 3.4 22:02:35 10° SW 22:07:49 61° SSE 22:11:37 19° ENE
Cosmos 2322 Rocket 2.5 22:04:57 10° NNW 22:10:30 64° WSW 22:13:59 23° S
Cosmos 773 Rocket 4.0 22:05:43 10° N 22:10:52 62° ENE 22:12:51 37° SE
Cosmos 2228 Rocket 4.5 22:08:11 10° NNW 22:12:18 37° W 22:16:21 11° SSW
UNK 4.5 22:06:23 10° NNE 22:12:36 75° ESE 22:18:16 13° S
S3M 4.4 22:06:58 10° NNW 22:12:58 59° W 22:18:32 12° S
CZ-4 R/B 4.3 22:11:37 10° NNE 22:16:12 39° E 22:16:33 38° ESE
SL-16 R/B 2.7 22:15:02 10° NNW 22:20:34 56° WSW 22:23:46 25° S
ATLAS CENTAUR R/B 3.1 22:17:01 10° NW 22:20:37 26° WSW 22:22:28 19° SSW
Cosmos 1908 3.2 22:16:51 10° N 22:20:45 86° W 22:21:34 55° S
Cosmos 2360 Rocket 2.6 22:15:19 10° N 22:20:46 48° ENE 22:22:23 38° ESE
NOSS 3-1 (A) 3.3 22:21:17 24° S 22:24:38 56° ESE 22:30:38 10° NE
Cosmos 1939 Rocket 3.8 22:23:26 27° SSW 22:25:07 43° W 22:28:53 10° NNW
Meteor 1-11 4.4 22:25:08 41° SE 22:26:45 54° E 22:32:21 10° NNE
MetOp-B 4.1 22:26:49 44° SSE 22:28:33 74° ENE 22:33:54 10° N
Cosmos 1674 4.2 22:28:19 16° SW 22:30:52 35° W 22:34:25 10° NNW
SPOT 5 2.9 22:34:33 46° SSW 22:35:43 67° WSW 22:40:22 10° NNW
Envisat 3.6 22:33:42 28° SSW 22:36:06 51° W 22:41:03 10° NNW
GPS 2-04 Rocket1 3.4 22:33:34 10° WNW 22:37:28 46° SW 22:37:28 46° SW
Tiangong 1 2.6 22:36:53 10° W 22:39:16 35° WNW 22:39:16 35° WNW
Cosmos 2227 Rocket 3.8 22:42:28 20° ENE 22:42:28 20° ENE 22:44:53 10° NE
SL-08 RB Rocket 4.3 22:40:45 40° ENE 22:40:45 40° ENE 22:44:36 10° N
Cosmos 1437 4.4 22:41:55 29° W 22:42:25 31° W 22:45:22 10° NNW
ATLAS 2AS CENTAUR R/B 3.7 22:48:09 31° E 22:48:09 31° E 22:53:38 10° NE
Cosmos 1300 3.8 22:43:30 10° N 22:46:04 36° NNE 22:46:04 36° NNE
Cosmos 1437 Rocket 4.4 22:44:20 10° NW 22:47:37 27° W 22:48:31 24° WSW
Cosmos 2298 Rocket 3.9 22:48:24 54° SSW 22:49:40 90° ENE 22:55:00 10° NNE
Cosmos 2112 Rocket 3.8 22:47:35 10° NNW 22:52:50 80° ENE 22:53:12 75° ESE
H-2A R/B 3.2 22:49:17 10° WSW 22:53:06 71° SSE 23:15:00 10° E
Cosmos 2333 Rocket 4.1 22:51:26 10° NNE 22:54:47 16° ENE 22:55:11 15° ENE
DELTA 2 R/B (1) 4.3 22:50:14 10° NW 22:55:34 46° NNE 22:57:08 36° ENE
Sich 1 3.3 22:56:58 66° NNE 22:56:58 66° NNE 23:00:46 10° N
YAOGAN 6 3.7 22:57:57 43° WNW 22:57:57 43° WNW 23:00:48 10° NNW
Cosmos 1633 Rocket 3.4 22:58:07 59° NNE 22:58:07 59° NNE 23:01:43 10° N
Cosmos 1937 Rocket 3.7 22:58:30 54° ENE 22:58:30 54° ENE 23:02:52 10° NNE
COSMOS 2428 2.9 23:01:14 10° N 23:06:47 57° ENE 23:06:47 57° ENE
Cosmos 2297 Rocket 3.9 23:10:25 20° ENE 23:10:25 20° ENE 23:12:34 10° NE
Cosmos 2315 Rocket 4.3 23:02:43 10° NNW 23:08:49 62° W 23:10:26 46° SSW
H-2A R/B 2.6 23:10:13 49° NE 23:10:13 49° NE 23:14:56 10° N
Cosmos 304 Rocket 4.4 23:06:08 10° NNW 23:10:43 48° W 23:10:43 48° W
NOSS 3-1 (C) 4.4 23:07:00 10° SW 23:12:27 43° NW 23:18:23 10° NNE
Landsat 7 4.3 23:18:17 57° N 23:18:17 57° N 23:22:06 10° N
ARGOS 3.3 23:18:34 61° WSW 23:18:45 62° WSW 23:24:07 10° NNW
Cosmos 1241 Rocket 4.4 23:20:30 65° ENE 23:20:30 65° ENE 23:25:58 10° NNE
SPOT 1/Viking Rocket 4.3 23:21:45 44° WSW 23:21:57 44° W 23:26:52 10° NNW
Cosmos 2219 Rocket 3.2 23:17:58 10° N 23:22:26 35° NE 23:22:26 35° NE
Cosmos 2237 4.2 23:22:43 10° NNW 23:28:02 76° NW 23:28:02 76° NW
Terra 2.7 23:34:39 45° N 23:34:39 45° N 23:37:58 10° N
Nadezhda 1 Rocket 4.1 23:31:53 10° N 23:37:15 65° NE 23:37:15 65° NE
Cosmos 1745 Rocket 4.2 23:42:06 60° W 23:42:30 61° W 23:48:38 10° N
Cosmos 2082 4.1 23:49:09 59° N 23:49:09 59° N 23:53:51 10° NNE
Cosmos 2237 Rocket 3.3 23:46:22 10° N 23:50:31 37° NE 23:50:31 37° NE
SeaSat 1 4.4 23:55:21 21° NE 23:55:21 21° NE 23:57:59 10° N
